User: anonymous   Login
Location: Unspecified
(0.0000°N, 0.0000°E)
Time: 08:30:09
(UTC+00:00)
Language:

Tansei-1 - Orbit

View from above orbital plane
View from above orbital plane
View from above satellite
View from above satellite

Ground track
Ground track

The orbit data is extracted from the following two-line orbital elements,

1  4952U 71011A   19345.53657113  .00000083  00000-0  23558-4 0  9991
2  4952  29.6669 266.7995 0079666   2.7615 161.3008 13.58484514425204
Epoch (UTC): 11 December 2019 12:52:39
Eccentricity: 0.0079666
inclination: 29.6669°
perigee height: 982 km
apogee height: 1100 km
right ascension of ascending node: 266.7995°
argument of perigee: 2.7615°
revolutions per day: 13.58484514
mean anomaly at epoch: 161.3008°
orbit number at epoch: 42520

The dashed part of the orbit path shows where the satellite is in the earth's shadow,  

DLR